Starlink 32905

operational
NORAD ID: 62923 Int'l Des: 2025-027 Owner: SPXS Country: US Constellation: starlink
LEOCIRCULAR

关于 Starlink 32905

正在加载描述...

实时位置

正在加载3D地球...

即将过境

高度历史

Altitude vs Time

uPlot chart will show altitude changes over time

两行轨道根数

1 62923U 25027S 26034.51696318 .00029542 00000-0 10790-2 0 9993
2 62923 43.0017 322.0693 0000913 295.8050 64.2708 15.27572485 56314
Epoch: Feb 3, 2026 • Age: 13 hours

当前状态

高度 483.4 km
速度 7.63 km/s
星下点 -6.25°S, 164.38°E
发射日期 Feb 8, 2025
运行时间 0.9 years
类型 internet

技术详情

分类 Payload
质量 730.00 kg
干质量 700.00 kg
总质量 730.00 kg
长度 0.30 m
直径 4.10 m
跨度 29.00 m
形状 Box + pan
制造商 SPXS
平台类型 Starlink V2M
阶段状态 In Orbit
所有者/国家 SPXS/US

大型星座

Loading constellations...